GFSGL_500_temp_273.txt.gz
Temp
-12 -12 -12 -12 -12 -12 -12 -12 -12 -12 -12 -12 -12 -12 -12 -12 -12 -12 -12 -12 -12 -12 -12 -12 -12 -12 -12 -11 -12 -13 -13 -12 -12 -12 -12 -11 -12 -13 -13 -12 -12 -12 -12
-12 -12 -12 -12 -12 -12 -12 -12 -12 -12 -12 -12 -12 -12 -12 -12 -12 -12 -13 -13 -13 -13 -13 -13 -13 -13 -12 -12 -12 -12 -13 -14 -12 -12 -12 -12 -13 -13 -12 -12 -12 -12 -12
-12 -13 -13 -12 -12 -12 -12 -13 -13 -13 -13 -13 -13 -12 -12 -12 -12 -13 -13 -14 -13 -13 -14 -13 -13 -13 -13 -13 -12 -13 -13 -14 -14 -14 -13 -13 -13 -14 -13 -13 -13 -12 -12
-13 -13 -13 -13 -13 -13 -13 -13 -13 -13 -13 -13 -13 -13 -13 -13 -13 -13 -14 -14 -14 -14 -14 -14 -14 -14 -14 -14 -14 -13 -13 -13 -14 -14 -14 -15 -13 -13 -13 -13 -13 -12 -13
-13 -12 -12 -12 -13 -13 -13 -13 -13 -13 -13 -14 -13 -14 -14 -14 -14 -14 -14 -14 -15 -15 -15 -15 -15 -15 -14 -14 -14 -14 -14 -14 -13 -14 -14 -14 -14 -13 -13 -13 -13 -13 -13
-14 -13 -13 -13 -13 -13 -13 -13 -13 -13 -14 -14 -14 -14 -15 -15 -15 -15 -15 -15 -16 -16 -16 -16 -16 -15 -15 -14 -14 -14 -14 -14 -14 -14 -15 -14 -15 -15 -13 -13 -13 -13 -13
-15 -14 -14 -13 -14 -13 -14 -14 -13 -14 -14 -15 -15 -15 -16 -16 -16 -16 -16 -16 -16 -16 -16 -16 -16 -16 -16 -15 -15 -15 -15 -15 -15 -14 -14 -14 -14 -15 -14 -14 -13 -13 -13
-15 -15 -15 -14 -14 -15 -15 -15 -15 -15 -15 -16 -16 -16 -16 -17 -17 -17 -17 -17 -16 -16 -16 -16 -16 -16 -16 -16 -16 -15 -15 -15 -15 -15 -15 -14 -14 -14 -15 -14 -14 -13 -13
-16 -16 -16 -16 -15 -15 -15 -15 -16 -16 -16 -17 -17 -17 -17 -17 -17 -17 -17 -17 -17 -17 -17 -16 -17 -16 -16 -16 -16 -16 -15 -15 -15 -15 -16 -15 -15 -15 -15 -15 -14 -14 -13
-17 -16 -16 -16 -16 -16 -16 -16 -17 -17 -17 -17 -18 -18 -18 -18 -17 -17 -17 -17 -18 -18 -18 -17 -17 -17 -17 -17 -16 -16 -15 -15 -15 -15 -15 -16 -15 -15 -14 -14 -14 -14 -13
-17 -16 -16 -16 -16 -17 -17 -17 -18 -18 -18 -18 -18 -18 -18 -18 -18 -18 -18 -18 -18 -18 -19 -18 -17 -18 -18 -17 -17 -16 -16 -15 -15 -15 -15 -15 -15 -16 -15 -15 -15 -14 -13
-17 -16 -17 -17 -17 -18 -18 -18 -18 -18 -18 -18 -18 -18 -18 -18 -18 -18 -18 -18 -18 -19 -19 -19 -19 -19 -18 -18 -17 -17 -16 -16 -15 -15 -15 -15 -16 -15 -16 -16 -15 -14 -14
-17 -17 -18 -18 -18 -18 -19 -19 -19 -18 -18 -18 -18 -18 -18 -19 -18 -19 -19 -18 -19 -19 -19 -19 -19 -19 -19 -18 -17 -17 -16 -16 -16 -15 -15 -15 -15 -15 -15 -15 -15 -15 -14
-18 -19 -19 -19 -19 -19 -19 -19 -19 -19 -19 -19 -19 -18 -19 -19 -19 -19 -19 -19 -19 -19 -19 -19 -19 -19 -18 -18 -18 -17 -17 -16 -16 -16 -15 -15 -15 -15 -15 -15 -15 -15 -15
-19 -18 -19 -19 -19 -19 -19 -19 -19 -19 -19 -19 -19 -19 -19 -19 -19 -19 -18 -19 -19 -19 -19 -19 -19 -19 -18 -18 -18 -17 -17 -17 -16 -16 -16 -15 -15 -15 -15 -15 -15 -15 -15
-19 -19 -19 -19 -19 -19 -19 -20 -20 -20 -21 -21 -21 -21 -21 -21 -21 -20 -19 -18 -18 -19 -19 -19 -19 -19 -18 -18 -18 -17 -17 -17 -17 -16 -16 -16 -16 -16 -15 -15 -15 -15 -15
-19 -19 -19 -20 -20 -20 -21 -21 -20 -21 -21 -21 -21 -22 -22 -22 -22 -21 -20 -19 -18 -18 -18 -19 -19 -19 -18 -18 -18 -17 -17 -17 -17 -17 -16 -16 -16 -17 -16 -16 -15 -15 -15
-19 -20 -20 -20 -20 -20 -21 -21 -21 -21 -21 -21 -21 -21 -22 -22 -22 -22 -20 -19 -19 -18 -18 -18 -18 -18 -18 -18 -18 -18 -18 -17 -17 -17 -17 -17 -16 -17 -17 -17 -16 -15 -15
-20 -20 -20 -20 -20 -20 -20 -20 -20 -20 -20 -21 -21 -21 -21 -21 -22 -21 -21 -20 -19 -18 -18 -18 -18 -17 -17 -17 -17 -18 -18 -18 -17 -17 -17 -17 -17 -16 -16 -17 -17 -16 -16
-20 -20 -20 -20 -20 -20 -20 -20 -20 -20 -20 -20 -20 -20 -20 -20 -21 -20 -20 -20 -20 -19 -18 -18 -17 -17 -17 -17 -17 -17 -17 -17 -17 -17 -17 -17 -17 -17 -16 -16 -17 -17 -16
-21 -20 -20 -20 -20 -20 -20 -20 -20 -20 -20 -20 -20 -20 -20 -21 -20 -20 -20 -20 -19 -19 -19 -18 -17 -17 -16 -16 -16 -17 -17 -17 -17 -17 -17 -17 -17 -17 -17 -16 -16 -16 -17
-21 -21 -21 -20 -20 -20 -20 -20 -20 -20 -20 -20 -20 -20 -20 -20 -21 -20 -20 -20 -19 -19 -18 -18 -18 -17 -16 -16 -16 -16 -17 -17 -18 -18 -17 -17 -17 -17 -17 -17 -17 -17 -17
-21 -21 -21 -21 -21 -21 -20 -20 -20 -21 -21 -21 -21 -20 -20 -20 -20 -20 -20 -20 -19 -19 -19 -18 -18 -17 -17 -16 -16 -16 -16 -17 -17 -17 -17 -17 -17 -18 -17 -18 -17 -18 -17
-22 -22 -21 -21 -21 -20 -20 -20 -21 -20 -21 -20 -20 -20 -20 -20 -20 -20 -20 -19 -19 -19 -19 -19 -18 -18 -17 -16 -16 -16 -16 -17 -17 -17 -17 -18 -18 -19 -19 -19 -18 -18 -18
-22 -22 -21 -21 -21 -21 -21 -20 -20 -20 -20 -20 -20 -20 -20 -20 -20 -20 -20 -20 -19 -19 -20 -19 -19 -18 -18 -17 -17 -17 -17 -17 -17 -17 -17 -17 -18 -18 -19 -19 -19 -19 -18
-22 -22 -22 -21 -21 -21 -20 -20 -20 -20 -20 -20 -20 -19 -19 -19 -19 -19 -20 -20 -20 -20 -20 -20 -19 -18 -18 -17 -17 -17 -17 -17 -17 -17 -17 -17 -18 -18 -19 -19 -19 -18 -18

GFSGL_500_temp_276.txt.gz
Temp
-12 -13 -12 -11 -11 -12 -12 -12 -12 -12 -12 -12 -12 -12 -12 -12 -12 -12 -12 -12 -12 -12 -12 -12 -12 -12 -12 -12 -12 -12 -12 -11 -11 -12 -12 -12 -12 -11 -12 -11 -11 -11 -12
-12 -13 -12 -11 -12 -12 -12 -12 -12 -12 -12 -12 -12 -12 -12 -12 -12 -12 -12 -12 -13 -12 -13 -13 -13 -13 -13 -13 -13 -13 -12 -12 -12 -12 -12 -12 -12 -13 -12 -12 -12 -12 -12
-13 -14 -12 -12 -12 -13 -13 -13 -13 -13 -13 -13 -13 -12 -12 -12 -12 -12 -13 -13 -13 -13 -13 -13 -13 -14 -14 -14 -14 -14 -13 -13 -13 -12 -13 -13 -12 -13 -13 -12 -12 -12 -12
-14 -13 -12 -12 -12 -13 -13 -13 -13 -13 -13 -13 -13 -12 -12 -12 -12 -13 -13 -13 -14 -14 -14 -14 -14 -15 -15 -15 -14 -14 -14 -14 -13 -13 -13 -13 -13 -13 -14 -13 -14 -13 -13
-13 -12 -13 -13 -14 -14 -14 -13 -13 -13 -13 -13 -13 -13 -13 -13 -13 -14 -14 -14 -14 -15 -15 -15 -15 -15 -16 -16 -16 -15 -15 -15 -14 -14 -14 -15 -14 -14 -13 -14 -14 -14 -13
-13 -14 -13 -13 -13 -15 -14 -14 -14 -14 -13 -13 -13 -14 -14 -14 -14 -15 -15 -15 -16 -16 -16 -16 -16 -16 -16 -16 -16 -16 -16 -16 -15 -15 -14 -14 -14 -14 -14 -14 -14 -14 -14
-14 -14 -14 -14 -14 -14 -13 -14 -14 -14 -14 -14 -15 -15 -15 -15 -15 -16 -16 -16 -16 -17 -17 -16 -17 -16 -16 -16 -16 -16 -16 -16 -16 -15 -15 -15 -15 -14 -14 -15 -14 -14 -15
-15 -15 -14 -14 -14 -15 -15 -15 -15 -14 -15 -15 -15 -16 -16 -16 -16 -17 -17 -17 -17 -17 -17 -17 -17 -17 -16 -16 -16 -16 -16 -16 -16 -16 -15 -15 -15 -15 -15 -14 -14 -13 -14
-14 -14 -15 -15 -15 -14 -15 -15 -15 -15 -15 -15 -15 -16 -16 -17 -17 -17 -17 -17 -17 -17 -17 -17 -17 -17 -17 -18 -17 -17 -17 -16 -16 -16 -16 -16 -15 -15 -15 -15 -15 -14 -14
-15 -14 -15 -16 -16 -16 -16 -16 -16 -16 -16 -16 -17 -17 -17 -18 -18 -18 -18 -17 -17 -17 -18 -18 -18 -18 -18 -18 -18 -17 -17 -17 -16 -16 -16 -16 -16 -16 -16 -15 -15 -15 -14
-14 -14 -16 -16 -17 -17 -16 -16 -17 -17 -17 -17 -17 -17 -18 -18 -18 -18 -18 -18 -18 -18 -18 -18 -18 -18 -18 -19 -18 -18 -18 -17 -17 -16 -16 -16 -16 -16 -16 -16 -15 -15 -15
-16 -16 -16 -17 -16 -16 -17 -17 -17 -18 -18 -18 -18 -18 -19 -19 -18 -18 -18 -19 -19 -18 -19 -18 -18 -18 -18 -19 -19 -19 -18 -18 -17 -16 -16 -16 -16 -16 -16 -16 -17 -15 -15
-17 -17 -17 -16 -17 -17 -18 -18 -18 -18 -18 -18 -19 -19 -19 -19 -19 -19 -19 -19 -19 -19 -19 -19 -19 -19 -19 -19 -19 -19 -19 -18 -18 -17 -16 -16 -16 -16 -15 -16 -16 -16 -15
-17 -16 -16 -16 -17 -18 -18 -18 -18 -19 -19 -19 -19 -19 -19 -20 -20 -20 -20 -20 -20 -20 -19 -18 -19 -19 -19 -19 -19 -19 -19 -19 -18 -17 -17 -16 -16 -16 -15 -15 -16 -16 -16
-17 -17 -18 -18 -18 -19 -19 -19 -19 -19 -19 -19 -20 -20 -20 -21 -21 -22 -22 -22 -21 -21 -20 -19 -18 -18 -18 -19 -19 -19 -19 -18 -18 -18 -17 -16 -16 -16 -15 -15 -15 -15 -16
-18 -19 -19 -19 -19 -19 -19 -19 -19 -20 -20 -20 -20 -20 -20 -21 -21 -22 -22 -22 -22 -21 -20 -19 -18 -18 -18 -19 -19 -19 -19 -18 -18 -18 -17 -17 -16 -16 -16 -15 -15 -15 -15
-19 -19 -18 -18 -19 -19 -19 -19 -20 -20 -20 -20 -20 -20 -20 -21 -21 -21 -22 -22 -23 -22 -20 -19 -18 -18 -18 -18 -19 -19 -18 -18 -18 -17 -17 -17 -16 -16 -16 -15 -15 -15 -15
-19 -19 -19 -19 -19 -19 -19 -19 -19 -20 -20 -20 -20 -20 -20 -20 -20 -21 -21 -22 -22 -22 -21 -19 -18 -18 -18 -18 -18 -18 -18 -18 -18 -17 -17 -17 -17 -16 -16 -16 -15 -15 -15
-18 -19 -19 -19 -19 -19 -19 -19 -19 -19 -20 -20 -20 -20 -20 -20 -20 -21 -21 -21 -21 -21 -21 -20 -19 -18 -18 -18 -18 -18 -18 -18 -18 -18 -18 -17 -17 -17 -16 -16 -16 -16 -16
-19 -20 -20 -20 -20 -19 -19 -19 -20 -20 -20 -20 -20 -20 -21 -20 -20 -21 -21 -21 -21 -20 -20 -20 -19 -18 -17 -17 -17 -17 -17 -18 -18 -18 -18 -17 -17 -17 -17 -16 -17 -17 -17
-20 -21 -21 -20 -20 -20 -20 -20 -20 -20 -20 -20 -20 -21 -20 -20 -20 -20 -21 -21 -20 -20 -20 -19 -19 -18 -17 -17 -17 -17 -17 -17 -18 -18 -18 -18 -17 -17 -17 -16 -17 -17 -17
-21 -21 -21 -21 -20 -20 -20 -20 -20 -20 -20 -20 -20 -20 -20 -20 -20 -20 -20 -20 -20 -20 -19 -19 -19 -18 -17 -17 -16 -16 -17 -17 -17 -17 -17 -17 -17 -17 -17 -17 -17 -17 -17
-22 -22 -21 -21 -21 -20 -20 -20 -20 -20 -20 -20 -20 -20 -20 -20 -20 -20 -20 -20 -20 -19 -19 -19 -19 -19 -18 -17 -16 -16 -16 -16 -16 -17 -17 -17 -17 -17 -17 -17 -17 -17 -17
-22 -22 -22 -21 -21 -21 -20 -20 -20 -20 -20 -20 -20 -20 -20 -19 -19 -19 -19 -20 -20 -19 -19 -19 -19 -19 -18 -18 -17 -16 -16 -16 -16 -17 -18 -18 -17 -17 -17 -17 -17 -17 -17
-22 -22 -22 -22 -22 -22 -21 -21 -20 -20 -20 -20 -20 -20 -20 -19 -19 -19 -19 -19 -20 -20 -20 -20 -20 -19 -19 -18 -17 -16 -16 -16 -16 -17 -17 -18 -18 -17 -18 -18 -18 -18 -18
-22 -22 -22 -22 -22 -22 -21 -21 -21 -20 -20 -20 -20 -20 -20 -20 -19 -19 -19 -19 -20 -20 -20 -20 -20 -20 -19 -18 -18 -17 -16 -16 -16 -17 -17 -17 -17 -17 -17 -18 -19 -18 -18

GFSGL_500_temp_279.txt.gz
Temp
-12 -12 -12 -12 -12 -12 -12 -11 -10 -11 -11 -12 -12 -12 -12 -12 -12 -12 -12 -12 -12 -12 -12 -12 -12 -12 -12 -12 -12 -12 -12 -12 -12 -12 -12 -12 -12 -12 -12 -12 -12 -11 -11
-11 -12 -11 -12 -12 -12 -12 -11 -11 -11 -11 -11 -11 -12 -12 -12 -12 -12 -12 -12 -12 -12 -12 -12 -12 -13 -13 -13 -13 -13 -13 -13 -13 -13 -13 -12 -12 -12 -12 -13 -12 -12 -11
-13 -13 -12 -11 -12 -12 -12 -13 -12 -12 -12 -12 -12 -12 -12 -12 -12 -12 -12 -12 -12 -12 -12 -12 -13 -13 -14 -14 -14 -14 -14 -14 -14 -14 -13 -13 -12 -13 -13 -13 -13 -12 -12
-13 -13 -13 -12 -12 -13 -13 -13 -13 -12 -12 -13 -13 -13 -13 -13 -13 -13 -13 -13 -13 -13 -13 -13 -14 -14 -15 -15 -15 -15 -15 -15 -15 -14 -14 -14 -13 -13 -13 -13 -13 -13 -13
-13 -13 -14 -13 -14 -14 -14 -14 -13 -13 -13 -13 -14 -14 -14 -14 -13 -14 -14 -14 -13 -14 -14 -14 -15 -15 -15 -16 -16 -16 -16 -16 -16 -15 -15 -14 -14 -13 -14 -14 -14 -13 -13
-14 -15 -14 -15 -15 -15 -15 -16 -14 -14 -14 -14 -14 -15 -14 -15 -14 -14 -14 -14 -14 -15 -15 -16 -16 -16 -16 -16 -17 -17 -17 -16 -16 -16 -15 -15 -15 -14 -14 -14 -14 -13 -13
-14 -14 -14 -14 -15 -15 -15 -15 -15 -15 -15 -15 -15 -15 -15 -14 -14 -14 -14 -15 -15 -16 -16 -16 -16 -17 -17 -17 -17 -17 -17 -17 -17 -16 -16 -15 -15 -15 -15 -15 -14 -13 -13
-14 -14 -14 -14 -14 -14 -15 -14 -15 -15 -15 -15 -15 -15 -15 -14 -15 -15 -16 -16 -17 -17 -17 -17 -17 -17 -17 -17 -17 -17 -17 -16 -16 -16 -16 -16 -16 -15 -15 -15 -14 -14 -14
-14 -14 -15 -14 -15 -15 -14 -15 -15 -16 -16 -15 -15 -15 -15 -16 -16 -16 -16 -17 -17 -17 -17 -18 -18 -17 -17 -17 -17 -18 -18 -17 -17 -17 -17 -16 -16 -16 -15 -15 -15 -15 -15
-15 -15 -13 -14 -14 -16 -16 -16 -16 -16 -16 -16 -15 -15 -14 -15 -16 -17 -17 -18 -18 -18 -18 -18 -18 -18 -18 -18 -18 -18 -18 -18 -18 -18 -18 -17 -17 -16 -16 -16 -16 -15 -16
-15 -13 -13 -15 -14 -16 -16 -16 -16 -16 -15 -15 -15 -15 -17 -17 -18 -18 -18 -18 -18 -18 -18 -18 -18 -18 -18 -18 -18 -18 -18 -18 -18 -18 -18 -18 -17 -17 -16 -16 -16 -15 -16
-15 -15 -14 -15 -15 -16 -16 -17 -16 -16 -16 -17 -17 -17 -18 -18 -18 -19 -19 -19 -19 -19 -19 -19 -19 -19 -19 -18 -18 -18 -18 -19 -19 -19 -18 -18 -18 -17 -17 -16 -16 -16 -16
-15 -15 -15 -15 -16 -15 -16 -16 -17 -17 -18 -17 -17 -18 -18 -19 -20 -20 -20 -20 -20 -21 -21 -21 -21 -20 -20 -19 -19 -19 -19 -19 -19 -19 -19 -18 -18 -18 -17 -16 -16 -16 -16
-15 -15 -15 -16 -17 -15 -15 -16 -17 -17 -17 -17 -17 -18 -19 -20 -20 -20 -20 -20 -20 -21 -21 -21 -22 -21 -21 -20 -19 -19 -19 -19 -19 -19 -19 -18 -18 -18 -17 -17 -16 -16 -16
-16 -17 -16 -16 -16 -17 -18 -17 -17 -17 -17 -17 -18 -19 -19 -19 -19 -20 -20 -20 -20 -21 -21 -22 -22 -23 -22 -21 -20 -19 -19 -19 -19 -19 -19 -19 -18 -18 -18 -17 -16 -16 -16
-17 -17 -17 -17 -17 -17 -17 -18 -17 -17 -18 -18 -19 -19 -19 -19 -19 -20 -20 -20 -20 -21 -21 -22 -22 -23 -22 -21 -20 -19 -19 -19 -19 -19 -19 -18 -18 -17 -17 -17 -16 -16 -16
-18 -19 -18 -18 -18 -18 -18 -18 -17 -18 -18 -18 -19 -19 -19 -19 -19 -20 -20 -20 -21 -21 -21 -22 -23 -22 -21 -20 -19 -19 -19 -19 -19 -19 -19 -18 -18 -17 -17 -17 -16 -16 -16
-18 -18 -18 -18 -18 -18 -18 -18 -18 -18 -19 -19 -19 -19 -19 -20 -19 -20 -20 -20 -21 -21 -21 -21 -22 -22 -20 -19 -19 -19 -19 -19 -19 -19 -19 -18 -18 -17 -17 -17 -16 -16 -16
-18 -18 -18 -18 -18 -19 -19 -18 -18 -18 -19 -19 -19 -20 -20 -20 -20 -20 -20 -20 -20 -21 -21 -21 -21 -21 -20 -19 -18 -18 -19 -19 -19 -19 -18 -18 -18 -17 -17 -16 -16 -16 -16
-19 -19 -19 -18 -18 -19 -19 -19 -19 -19 -19 -19 -19 -20 -20 -20 -20 -20 -20 -20 -20 -20 -20 -20 -20 -20 -19 -18 -18 -18 -18 -18 -18 -18 -18 -18 -18 -17 -17 -16 -16 -16 -16
-19 -19 -19 -19 -19 -20 -20 -20 -20 -19 -19 -19 -20 -20 -20 -20 -19 -20 -20 -20 -20 -20 -20 -20 -20 -19 -19 -19 -18 -18 -18 -18 -18 -18 -18 -18 -18 -18 -17 -17 -17 -16 -16
-20 -20 -20 -21 -21 -21 -21 -20 -20 -20 -20 -20 -20 -20 -20 -19 -19 -19 -19 -19 -19 -20 -20 -20 -20 -19 -19 -19 -19 -18 -18 -18 -18 -18 -18 -18 -18 -18 -18 -18 -17 -17 -17
-20 -21 -21 -22 -22 -22 -21 -21 -20 -20 -20 -20 -20 -20 -20 -19 -19 -19 -19 -19 -19 -19 -19 -19 -19 -19 -19 -19 -19 -18 -17 -17 -17 -18 -18 -18 -18 -18 -18 -18 -17 -17 -17
-21 -22 -22 -22 -22 -22 -22 -21 -21 -20 -20 -20 -20 -20 -20 -20 -20 -19 -19 -19 -19 -19 -19 -19 -19 -19 -19 -19 -19 -18 -17 -17 -17 -17 -18 -18 -18 -18 -18 -18 -17 -17 -17
-22 -22 -22 -22 -22 -22 -22 -22 -22 -21 -21 -20 -20 -20 -20 -20 -20 -20 -20 -19 -19 -19 -19 -20 -20 -20 -20 -19 -19 -18 -17 -16 -16 -17 -17 -17 -18 -18 -18 -18 -18 -17 -17
-22 -22 -22 -23 -22 -22 -22 -22 -22 -22 -21 -21 -20 -20 -20 -20 -20 -20 -20 -20 -19 -19 -19 -20 -20 -20 -20 -19 -18 -18 -17 -16 -16 -16 -17 -17 -18 -18 -18 -18 -18 -18 -17

GFSGL_500_temp_282.txt.gz
Temp
-12 -11 -12 -11 -11 -12 -12 -12 -10 -12 -11 -11 -11 -11 -11 -12 -12 -12 -12 -12 -12 -12 -12 -12 -12 -12 -12 -12 -12 -12 -11 -11 -11 -12 -12 -13 -12 -12 -12 -11 -12 -12 -11
-11 -11 -12 -12 -12 -12 -12 -12 -12 -12 -11 -12 -12 -11 -11 -12 -12 -12 -12 -12 -12 -13 -13 -13 -12 -12 -12 -12 -12 -12 -12 -12 -12 -12 -13 -13 -13 -13 -12 -12 -12 -12 -12
-11 -11 -11 -12 -12 -12 -12 -12 -12 -12 -12 -12 -12 -12 -12 -12 -12 -13 -13 -13 -13 -13 -13 -14 -14 -13 -13 -13 -13 -13 -13 -13 -13 -13 -14 -14 -14 -14 -13 -13 -12 -13 -12
-13 -12 -12 -12 -13 -13 -13 -13 -13 -13 -13 -13 -13 -13 -13 -13 -13 -13 -13 -13 -14 -14 -14 -14 -14 -13 -13 -14 -14 -14 -14 -14 -14 -15 -15 -15 -15 -15 -14 -14 -13 -14 -13
-12 -13 -13 -13 -13 -13 -13 -14 -14 -13 -13 -13 -14 -14 -13 -13 -13 -13 -14 -14 -14 -14 -13 -14 -13 -13 -13 -14 -14 -16 -16 -15 -15 -16 -16 -16 -16 -15 -15 -15 -14 -14 -14
-12 -13 -13 -13 -14 -14 -14 -14 -14 -13 -13 -13 -15 -15 -14 -15 -15 -15 -15 -14 -14 -13 -13 -13 -13 -14 -14 -14 -15 -16 -16 -16 -16 -16 -17 -16 -16 -16 -16 -15 -15 -15 -14
-13 -13 -14 -14 -14 -14 -14 -14 -14 -14 -14 -14 -15 -15 -15 -16 -15 -15 -15 -15 -15 -14 -14 -14 -14 -15 -16 -16 -17 -17 -17 -17 -17 -17 -17 -17 -16 -16 -16 -16 -15 -15 -15
-14 -14 -14 -14 -15 -15 -15 -15 -15 -15 -15 -16 -15 -15 -16 -16 -15 -15 -14 -14 -14 -15 -16 -16 -16 -17 -18 -18 -18 -18 -18 -18 -17 -17 -17 -17 -17 -16 -16 -16 -15 -15 -15
-15 -14 -14 -14 -15 -15 -16 -16 -15 -15 -15 -14 -15 -16 -16 -16 -15 -14 -14 -15 -16 -16 -17 -18 -18 -18 -19 -19 -19 -19 -18 -18 -18 -17 -18 -17 -17 -17 -16 -16 -16 -15 -15
-15 -15 -14 -14 -15 -15 -14 -14 -14 -15 -15 -16 -16 -17 -16 -15 -16 -16 -16 -17 -17 -17 -18 -19 -19 -19 -19 -19 -19 -19 -19 -19 -18 -18 -18 -18 -18 -17 -17 -16 -16 -16 -16
-15 -14 -14 -14 -14 -13 -14 -15 -14 -15 -15 -16 -17 -16 -16 -16 -17 -17 -17 -18 -19 -19 -19 -19 -19 -20 -20 -20 -20 -20 -20 -19 -19 -18 -18 -18 -18 -18 -17 -17 -16 -16 -16
-15 -15 -15 -14 -14 -14 -15 -14 -14 -15 -15 -16 -16 -16 -17 -17 -17 -17 -18 -19 -19 -19 -19 -19 -19 -20 -20 -21 -21 -21 -21 -20 -19 -19 -18 -18 -18 -18 -18 -18 -17 -17 -16
-15 -15 -15 -14 -15 -14 -15 -15 -16 -17 -15 -15 -15 -15 -16 -17 -18 -18 -18 -18 -19 -19 -19 -19 -20 -20 -20 -21 -22 -21 -21 -21 -20 -20 -19 -18 -18 -18 -18 -18 -17 -17 -17
-16 -15 -14 -15 -15 -16 -17 -17 -16 -16 -16 -16 -17 -17 -17 -18 -18 -19 -18 -18 -18 -18 -19 -20 -20 -21 -21 -22 -22 -22 -22 -21 -21 -20 -19 -19 -18 -19 -19 -18 -18 -17 -17
-16 -16 -17 -17 -18 -17 -17 -16 -17 -17 -17 -17 -17 -17 -18 -18 -18 -18 -18 -18 -18 -19 -19 -20 -20 -21 -21 -22 -23 -23 -23 -21 -21 -20 -20 -19 -19 -19 -19 -18 -18 -17 -17
-18 -18 -18 -17 -17 -17 -17 -17 -17 -17 -17 -17 -17 -18 -18 -18 -18 -18 -18 -18 -18 -18 -19 -20 -20 -21 -21 -22 -23 -23 -22 -21 -21 -20 -19 -19 -19 -19 -19 -18 -18 -18 -17
-18 -19 -18 -18 -18 -18 -18 -18 -18 -18 -18 -18 -18 -18 -17 -18 -18 -18 -18 -18 -18 -18 -19 -20 -20 -21 -21 -22 -22 -21 -21 -20 -20 -20 -19 -19 -19 -19 -19 -19 -18 -18 -17
-18 -18 -18 -18 -18 -18 -18 -18 -19 -18 -18 -18 -18 -18 -18 -18 -18 -18 -18 -18 -19 -19 -19 -20 -20 -20 -21 -21 -21 -20 -20 -19 -19 -19 -19 -19 -19 -19 -19 -18 -18 -18 -17
-19 -19 -19 -19 -19 -18 -19 -19 -19 -19 -19 -19 -19 -19 -19 -18 -18 -18 -18 -18 -19 -19 -19 -20 -20 -20 -20 -20 -20 -19 -19 -18 -18 -19 -19 -19 -19 -19 -19 -18 -18 -18 -17
-20 -20 -19 -19 -19 -19 -20 -20 -20 -20 -20 -19 -19 -19 -19 -18 -19 -19 -18 -19 -19 -19 -19 -19 -20 -19 -20 -20 -20 -19 -18 -18 -18 -19 -19 -19 -19 -19 -18 -18 -18 -18 -17
-20 -20 -20 -20 -20 -20 -21 -21 -21 -21 -20 -20 -20 -19 -19 -19 -19 -19 -19 -19 -19 -19 -19 -19 -19 -19 -19 -19 -19 -19 -19 -18 -18 -18 -18 -18 -19 -18 -18 -18 -18 -17 -17
-20 -20 -20 -20 -21 -21 -21 -21 -21 -21 -21 -20 -20 -20 -19 -19 -19 -19 -19 -19 -19 -19 -19 -19 -19 -19 -19 -19 -19 -19 -19 -18 -18 -18 -18 -18 -18 -18 -18 -17 -17 -17 -17
-20 -20 -21 -21 -21 -21 -22 -22 -22 -22 -21 -21 -20 -20 -19 -19 -19 -19 -19 -19 -19 -19 -19 -19 -19 -19 -19 -20 -19 -19 -19 -18 -18 -17 -18 -18 -18 -18 -18 -17 -17 -17 -17
-21 -21 -21 -22 -22 -22 -22 -22 -22 -22 -22 -22 -21 -20 -20 -20 -19 -19 -19 -19 -19 -19 -19 -19 -19 -19 -19 -20 -20 -19 -19 -18 -18 -17 -17 -18 -18 -18 -18 -18 -17 -17 -17
-21 -22 -22 -23 -23 -23 -23 -23 -23 -22 -22 -22 -21 -20 -20 -20 -19 -19 -19 -19 -19 -19 -19 -19 -19 -19 -19 -20 -20 -19 -19 -18 -17 -17 -17 -18 -18 -18 -18 -18 -18 -17 -17
-22 -23 -23 -23 -23 -23 -23 -23 -23 -23 -22 -22 -22 -21 -21 -20 -20 -20 -20 -20 -20 -19 -19 -19 -19 -19 -19 -20 -20 -19 -18 -18 -17 -17 -17 -17 -18 -18 -18 -18 -18 -18 -17

GFSGL_500_temp_285.txt.gz
Temp
-11 -11 -11 -11 -11 -11 -11 -11 -11 -11 -12 -12 -11 -11 -12 -11 -11 -11 -11 -11 -12 -12 -12 -12 -12 -12 -12 -12 -12 -12 -11 -11 -12 -12 -12 -11 -11 -11 -12 -12 -11 -12 -11
-12 -12 -12 -12 -12 -12 -12 -11 -12 -12 -12 -11 -11 -12 -12 -12 -12 -12 -12 -12 -12 -12 -12 -13 -13 -12 -12 -12 -12 -12 -12 -12 -12 -12 -12 -12 -12 -12 -12 -12 -12 -12 -12
-12 -12 -12 -12 -12 -12 -11 -12 -12 -13 -13 -12 -12 -13 -12 -12 -12 -12 -13 -13 -13 -13 -13 -13 -13 -13 -13 -13 -13 -12 -12 -13 -12 -12 -12 -13 -13 -13 -12 -12 -12 -13 -13
-13 -12 -13 -13 -13 -12 -12 -13 -12 -14 -13 -13 -12 -12 -13 -13 -13 -13 -14 -14 -14 -14 -14 -14 -14 -14 -14 -13 -13 -13 -13 -13 -13 -12 -13 -13 -14 -15 -15 -14 -14 -14 -14
-13 -13 -13 -13 -13 -12 -12 -12 -14 -13 -12 -12 -12 -13 -13 -13 -13 -14 -14 -14 -13 -13 -14 -14 -14 -14 -13 -13 -13 -14 -14 -14 -14 -15 -16 -16 -16 -17 -17 -16 -16 -15 -15
-13 -13 -13 -13 -13 -13 -13 -13 -13 -13 -13 -13 -13 -14 -14 -14 -14 -14 -15 -14 -15 -15 -14 -13 -13 -13 -13 -14 -14 -14 -15 -15 -16 -17 -17 -17 -16 -17 -17 -17 -16 -16 -16
-14 -13 -14 -14 -14 -13 -13 -13 -14 -14 -14 -14 -14 -15 -14 -14 -14 -14 -14 -15 -15 -15 -14 -13 -14 -14 -14 -15 -16 -16 -17 -17 -18 -18 -18 -18 -18 -17 -17 -17 -17 -16 -16
-14 -14 -14 -14 -14 -14 -14 -14 -14 -14 -14 -14 -14 -14 -15 -15 -14 -15 -16 -15 -15 -14 -14 -14 -15 -15 -16 -17 -18 -18 -18 -19 -18 -18 -19 -19 -18 -17 -17 -17 -17 -17 -17
-15 -15 -14 -14 -14 -14 -14 -14 -14 -14 -15 -14 -15 -15 -15 -15 -15 -16 -17 -16 -14 -15 -15 -16 -16 -17 -18 -18 -18 -18 -19 -19 -19 -19 -19 -19 -18 -18 -17 -17 -17 -17 -17
-15 -15 -15 -15 -15 -14 -14 -13 -15 -14 -15 -15 -15 -15 -15 -15 -15 -16 -16 -15 -15 -16 -17 -17 -18 -18 -18 -18 -18 -19 -19 -19 -20 -20 -19 -19 -19 -18 -18 -18 -17 -17 -17
-15 -15 -15 -15 -15 -15 -15 -15 -14 -14 -14 -14 -15 -15 -15 -15 -17 -17 -15 -15 -16 -17 -18 -18 -17 -18 -18 -18 -19 -19 -20 -20 -20 -20 -20 -19 -19 -19 -19 -18 -18 -18 -17
-15 -15 -15 -15 -15 -14 -15 -14 -14 -15 -15 -15 -15 -15 -15 -16 -17 -15 -16 -16 -17 -18 -18 -18 -18 -18 -18 -19 -19 -20 -20 -20 -21 -21 -21 -20 -19 -19 -19 -18 -18 -18 -18
-16 -15 -16 -15 -15 -15 -16 -15 -14 -15 -16 -16 -16 -16 -16 -16 -16 -16 -16 -18 -18 -18 -18 -18 -18 -18 -18 -19 -20 -20 -20 -21 -21 -22 -21 -21 -20 -19 -19 -19 -18 -18 -18
-16 -16 -15 -15 -15 -15 -15 -16 -16 -16 -16 -17 -17 -16 -16 -16 -16 -17 -17 -18 -18 -18 -18 -18 -18 -18 -19 -19 -20 -20 -21 -22 -22 -22 -22 -21 -20 -19 -19 -19 -19 -18 -18
-17 -16 -16 -17 -16 -16 -17 -18 -17 -17 -17 -16 -17 -17 -16 -16 -16 -17 -17 -18 -18 -18 -18 -18 -18 -18 -19 -19 -19 -20 -21 -22 -22 -22 -22 -21 -20 -19 -19 -19 -19 -19 -18
-17 -18 -18 -17 -17 -18 -18 -17 -17 -17 -17 -17 -17 -17 -17 -17 -17 -18 -18 -18 -18 -18 -18 -18 -18 -19 -18 -19 -19 -20 -21 -21 -21 -21 -21 -20 -20 -19 -19 -19 -19 -19 -18
-19 -19 -19 -18 -18 -18 -18 -18 -17 -17 -17 -17 -17 -17 -18 -18 -18 -18 -18 -18 -18 -18 -18 -18 -18 -18 -18 -19 -19 -20 -20 -20 -20 -20 -19 -20 -19 -19 -19 -19 -19 -19 -19
-19 -19 -18 -18 -18 -18 -18 -18 -18 -18 -18 -18 -18 -18 -18 -18 -18 -18 -18 -19 -19 -18 -18 -18 -18 -18 -19 -19 -19 -19 -20 -19 -19 -19 -19 -19 -19 -19 -19 -19 -19 -19 -19
-19 -19 -19 -19 -19 -19 -19 -19 -19 -19 -19 -19 -20 -20 -19 -19 -19 -19 -19 -19 -19 -19 -18 -18 -19 -19 -19 -19 -19 -19 -19 -19 -18 -18 -18 -18 -18 -19 -19 -19 -19 -19 -19
-20 -20 -20 -20 -20 -20 -20 -20 -20 -20 -20 -21 -21 -21 -20 -20 -19 -19 -19 -20 -19 -19 -19 -19 -19 -19 -19 -19 -19 -19 -19 -19 -18 -18 -18 -18 -19 -19 -19 -19 -19 -19 -18
-20 -20 -20 -21 -21 -21 -21 -21 -21 -21 -22 -22 -21 -21 -21 -20 -20 -20 -20 -20 -19 -19 -19 -19 -19 -19 -19 -19 -19 -19 -19 -19 -19 -18 -18 -19 -19 -19 -19 -19 -19 -18 -18
-21 -21 -21 -21 -21 -22 -22 -22 -22 -22 -22 -22 -22 -21 -21 -21 -20 -20 -20 -20 -20 -19 -19 -19 -19 -19 -19 -19 -19 -19 -19 -19 -19 -18 -18 -18 -19 -19 -19 -19 -19 -18 -18
-21 -21 -22 -22 -22 -22 -22 -22 -22 -22 -22 -22 -22 -22 -22 -21 -20 -20 -20 -20 -20 -19 -19 -19 -19 -19 -19 -19 -19 -19 -19 -19 -19 -19 -18 -18 -18 -18 -18 -18 -18 -18 -18
-21 -22 -22 -22 -22 -22 -23 -23 -23 -23 -23 -23 -22 -22 -22 -22 -21 -21 -20 -20 -20 -20 -19 -19 -19 -19 -19 -19 -19 -19 -19 -19 -19 -19 -18 -18 -18 -18 -18 -18 -18 -18 -17
-22 -22 -22 -23 -23 -23 -23 -24 -24 -23 -23 -23 -23 -22 -22 -22 -22 -21 -20 -20 -20 -20 -19 -19 -19 -19 -19 -19 -19 -19 -19 -19 -19 -18 -18 -18 -18 -18 -18 -18 -18 -17 -17
-22 -23 -23 -23 -23 -24 -24 -24 -24 -24 -23 -23 -23 -23 -22 -22 -22 -21 -21 -21 -20 -20 -20 -20 -20 -19 -19 -19 -19 -19 -19 -19 -18 -18 -17 -17 -18 -18 -18 -18 -17 -17 -17

GFSGL_500_temp_288.txt.gz
Temp
-11 -11 -11 -11 -12 -12 -12 -11 -11 -11 -11 -11 -11 -11 -12 -11 -11 -11 -11 -11 -11 -11 -11 -12 -12 -12 -12 -12 -12 -12 -12 -11 -12 -12 -12 -12 -12 -12 -12 -11 -11 -12 -12
-11 -11 -11 -11 -12 -12 -12 -12 -12 -11 -11 -11 -12 -12 -12 -12 -11 -11 -11 -11 -11 -11 -11 -12 -12 -12 -12 -12 -11 -12 -12 -12 -12 -12 -12 -12 -12 -12 -12 -12 -12 -12 -12
-11 -12 -12 -12 -12 -12 -12 -12 -12 -12 -10 -11 -12 -12 -13 -13 -11 -11 -11 -11 -11 -11 -12 -11 -12 -12 -12 -12 -12 -12 -12 -12 -12 -12 -12 -12 -12 -13 -13 -13 -13 -13 -13
-12 -12 -12 -12 -12 -12 -12 -12 -12 -11 -11 -10 -12 -12 -13 -12 -12 -12 -12 -11 -12 -12 -12 -12 -13 -13 -12 -13 -13 -13 -12 -12 -12 -11 -11 -11 -12 -13 -15 -15 -16 -15 -15
-12 -12 -12 -12 -13 -13 -12 -12 -12 -11 -12 -11 -11 -12 -12 -12 -12 -12 -12 -13 -13 -12 -13 -14 -14 -14 -13 -13 -13 -13 -12 -12 -12 -13 -13 -13 -14 -15 -16 -17 -18 -17 -17
-13 -12 -13 -13 -13 -13 -13 -12 -12 -12 -12 -13 -13 -13 -12 -13 -13 -13 -14 -13 -13 -13 -13 -13 -14 -14 -14 -14 -14 -13 -12 -12 -13 -14 -15 -16 -16 -17 -17 -18 -18 -17 -18
-13 -12 -12 -12 -13 -13 -13 -13 -13 -13 -14 -13 -13 -13 -13 -13 -14 -14 -14 -14 -13 -14 -13 -13 -15 -14 -14 -13 -13 -13 -13 -14 -15 -15 -16 -17 -17 -18 -18 -18 -18 -18 -18
-13 -13 -13 -13 -13 -13 -13 -14 -13 -14 -14 -14 -14 -14 -14 -14 -15 -14 -14 -14 -14 -14 -15 -16 -16 -15 -14 -15 -15 -15 -15 -16 -17 -17 -18 -18 -18 -18 -19 -19 -18 -18 -18
-13 -14 -13 -13 -14 -14 -14 -14 -14 -14 -14 -14 -14 -14 -14 -14 -14 -14 -15 -15 -15 -15 -15 -16 -16 -15 -15 -15 -16 -17 -17 -17 -17 -18 -18 -18 -19 -19 -19 -19 -19 -18 -18
-14 -13 -13 -13 -14 -14 -13 -14 -15 -15 -14 -14 -14 -14 -14 -14 -14 -15 -15 -15 -14 -15 -16 -15 -15 -15 -16 -17 -17 -17 -17 -18 -18 -18 -19 -19 -19 -19 -19 -19 -19 -18 -18
-13 -13 -14 -13 -13 -13 -14 -15 -15 -14 -14 -14 -15 -14 -13 -14 -14 -15 -15 -15 -14 -15 -15 -15 -15 -15 -16 -17 -17 -17 -17 -18 -19 -19 -20 -20 -20 -20 -20 -20 -19 -19 -19
-14 -13 -13 -13 -13 -14 -15 -14 -14 -15 -14 -15 -14 -15 -15 -15 -15 -15 -15 -15 -15 -15 -16 -16 -16 -17 -17 -17 -17 -17 -18 -19 -19 -20 -20 -21 -21 -20 -20 -20 -20 -19 -19
-14 -14 -14 -15 -14 -14 -15 -16 -14 -14 -15 -14 -15 -16 -15 -16 -16 -15 -15 -15 -15 -16 -16 -16 -17 -17 -18 -18 -18 -18 -18 -19 -20 -20 -21 -21 -21 -22 -21 -21 -20 -19 -19
-16 -15 -15 -15 -15 -14 -16 -16 -15 -16 -15 -15 -15 -16 -16 -16 -16 -16 -16 -16 -16 -16 -16 -17 -17 -18 -18 -18 -18 -18 -19 -19 -20 -21 -21 -22 -22 -22 -21 -21 -20 -19 -19
-17 -16 -15 -15 -15 -16 -16 -16 -16 -16 -16 -17 -17 -17 -17 -17 -16 -16 -16 -16 -16 -16 -17 -18 -18 -18 -18 -18 -18 -18 -19 -19 -20 -20 -22 -22 -22 -22 -21 -21 -20 -19 -19
-16 -16 -17 -17 -16 -17 -17 -17 -18 -18 -18 -17 -17 -17 -17 -17 -17 -16 -16 -17 -17 -17 -18 -18 -18 -18 -18 -18 -18 -19 -19 -19 -19 -20 -20 -21 -21 -21 -21 -20 -19 -19 -19
-18 -18 -18 -18 -19 -18 -18 -18 -18 -18 -18 -18 -18 -17 -17 -17 -17 -17 -17 -18 -18 -18 -18 -18 -19 -19 -19 -19 -19 -19 -19 -19 -19 -19 -18 -18 -19 -19 -20 -19 -19 -19 -19
-19 -19 -19 -18 -18 -18 -18 -18 -18 -18 -17 -17 -17 -18 -18 -18 -18 -18 -19 -19 -19 -19 -19 -19 -19 -19 -19 -19 -19 -19 -19 -19 -19 -18 -18 -18 -18 -19 -19 -19 -19 -19 -19
-19 -19 -19 -19 -19 -19 -19 -19 -19 -19 -19 -19 -19 -19 -19 -19 -19 -19 -19 -20 -20 -19 -19 -19 -19 -19 -19 -19 -19 -19 -19 -19 -19 -19 -18 -18 -18 -18 -19 -19 -19 -19 -19
-19 -19 -19 -19 -19 -20 -20 -20 -20 -20 -20 -20 -20 -20 -20 -20 -20 -20 -20 -20 -20 -20 -20 -20 -19 -19 -19 -19 -19 -19 -19 -19 -19 -19 -19 -18 -18 -19 -19 -19 -19 -19 -19
-19 -20 -20 -21 -20 -21 -21 -21 -21 -21 -21 -21 -21 -21 -21 -22 -21 -21 -21 -20 -20 -20 -20 -20 -19 -19 -19 -19 -19 -19 -19 -19 -19 -19 -19 -19 -18 -18 -19 -19 -19 -19 -19
-20 -21 -21 -21 -21 -22 -22 -22 -22 -22 -22 -22 -22 -22 -22 -22 -22 -22 -21 -21 -20 -20 -20 -20 -19 -19 -19 -19 -19 -19 -19 -19 -19 -19 -19 -19 -19 -19 -19 -19 -19 -19 -19
-21 -22 -21 -22 -22 -22 -22 -22 -23 -23 -23 -23 -23 -23 -23 -22 -22 -22 -22 -21 -20 -20 -20 -20 -20 -19 -19 -19 -19 -19 -19 -19 -19 -19 -19 -19 -19 -19 -19 -19 -19 -19 -19
-22 -22 -22 -22 -22 -23 -23 -23 -23 -23 -24 -24 -23 -23 -23 -22 -22 -22 -22 -21 -21 -20 -20 -20 -19 -19 -19 -19 -19 -19 -19 -19 -19 -19 -19 -19 -19 -19 -19 -19 -19 -19 -19
-22 -22 -22 -23 -23 -23 -23 -23 -24 -24 -24 -24 -23 -23 -23 -23 -22 -22 -22 -22 -21 -21 -20 -20 -20 -20 -19 -19 -19 -19 -19 -19 -19 -19 -20 -20 -19 -19 -19 -19 -19 -19 -18
-23 -23 -23 -23 -23 -23 -24 -24 -24 -24 -24 -24 -24 -23 -23 -23 -23 -23 -22 -22 -21 -21 -21 -21 -20 -20 -20 -20 -20 -19 -19 -19 -19 -20 -20 -19 -19 -19 -19 -19 -19 -18 -18

GFSGL_500_temp_291.txt.gz
Temp
-11 -11 -11 -11 -11 -11 -11 -11 -11 -12 -11 -11 -11 -11 -11 -11 -11 -11 -11 -11 -11 -12 -12 -11 -11 -11 -11 -11 -11 -12 -11 -11 -11 -12 -12 -12 -12 -12 -12 -12 -11 -11 -11
-11 -11 -11 -11 -11 -11 -11 -11 -12 -11 -11 -11 -11 -11 -10 -10 -10 -11 -12 -13 -13 -12 -11 -11 -12 -12 -12 -12 -12 -12 -11 -11 -11 -11 -12 -12 -12 -12 -12 -12 -11 -11 -11
-11 -11 -11 -11 -11 -11 -11 -11 -11 -11 -11 -11 -11 -10 -11 -11 -11 -11 -12 -14 -14 -12 -12 -12 -12 -11 -11 -11 -12 -11 -11 -12 -12 -12 -12 -12 -12 -12 -12 -11 -12 -11 -12
-12 -12 -12 -12 -12 -11 -11 -11 -11 -12 -12 -12 -12 -11 -11 -11 -11 -11 -12 -13 -13 -13 -12 -12 -12 -12 -12 -12 -12 -12 -12 -12 -12 -13 -13 -13 -12 -12 -12 -12 -12 -13 -13
-12 -12 -12 -12 -12 -12 -12 -12 -12 -12 -12 -12 -12 -11 -11 -11 -12 -12 -13 -13 -13 -12 -12 -13 -12 -13 -12 -12 -12 -12 -12 -13 -13 -13 -13 -13 -12 -12 -12 -13 -13 -14 -16
-12 -12 -12 -12 -13 -12 -12 -12 -12 -13 -13 -12 -12 -12 -12 -11 -13 -13 -13 -13 -13 -13 -13 -13 -13 -13 -12 -13 -13 -13 -13 -14 -14 -13 -13 -13 -13 -13 -14 -15 -15 -16 -17
-12 -12 -12 -12 -12 -13 -13 -12 -12 -13 -13 -14 -13 -13 -12 -12 -13 -14 -14 -14 -13 -13 -14 -14 -13 -13 -12 -13 -14 -14 -14 -14 -14 -14 -14 -14 -15 -15 -16 -17 -18 -18 -18
-13 -13 -13 -13 -13 -13 -13 -12 -12 -12 -13 -14 -14 -14 -14 -14 -14 -14 -13 -14 -13 -14 -14 -13 -13 -13 -13 -14 -15 -15 -14 -14 -14 -14 -15 -16 -16 -17 -17 -17 -17 -18 -18
-13 -13 -13 -13 -13 -13 -12 -12 -13 -12 -13 -14 -15 -14 -14 -14 -14 -13 -14 -14 -14 -13 -13 -14 -14 -14 -14 -15 -14 -14 -14 -15 -15 -15 -16 -16 -17 -17 -18 -18 -18 -19 -19
-14 -13 -14 -14 -13 -13 -13 -13 -13 -13 -14 -14 -13 -14 -14 -14 -14 -14 -14 -14 -14 -13 -14 -14 -14 -14 -15 -15 -15 -15 -15 -16 -16 -16 -17 -17 -17 -18 -18 -19 -19 -19 -20
-14 -14 -14 -14 -14 -13 -13 -13 -13 -13 -13 -14 -14 -15 -15 -14 -14 -14 -14 -14 -13 -13 -13 -14 -14 -14 -15 -16 -15 -16 -16 -17 -17 -17 -17 -17 -18 -18 -19 -19 -20 -20 -20
-15 -14 -14 -14 -14 -13 -13 -12 -13 -14 -13 -14 -14 -14 -14 -15 -14 -15 -14 -14 -13 -14 -14 -14 -15 -15 -15 -15 -15 -16 -17 -17 -17 -17 -17 -18 -18 -19 -20 -20 -21 -21 -21
-14 -13 -13 -14 -14 -15 -14 -13 -14 -13 -14 -14 -16 -15 -15 -14 -14 -15 -15 -15 -14 -15 -15 -15 -15 -15 -15 -16 -16 -17 -17 -17 -17 -18 -18 -18 -18 -19 -20 -21 -21 -21 -21
-13 -13 -14 -13 -14 -14 -13 -14 -14 -14 -14 -15 -15 -15 -16 -15 -15 -16 -16 -16 -16 -16 -16 -16 -16 -16 -16 -16 -17 -17 -17 -18 -18 -18 -18 -18 -19 -20 -21 -21 -22 -22 -21
-15 -14 -15 -15 -16 -16 -15 -15 -16 -16 -15 -16 -16 -16 -16 -16 -16 -17 -17 -16 -16 -16 -16 -16 -16 -16 -17 -17 -18 -18 -18 -18 -18 -18 -18 -19 -19 -20 -21 -22 -22 -22 -21
-16 -15 -15 -16 -16 -16 -16 -17 -16 -16 -18 -18 -18 -18 -18 -17 -17 -17 -17 -16 -16 -16 -16 -16 -17 -17 -18 -18 -18 -18 -18 -18 -18 -18 -18 -19 -19 -19 -21 -22 -22 -21 -21
-18 -17 -17 -17 -18 -18 -19 -19 -19 -19 -18 -18 -18 -18 -18 -17 -17 -17 -17 -17 -17 -17 -17 -17 -17 -18 -18 -18 -18 -19 -19 -18 -18 -18 -19 -19 -19 -19 -20 -21 -21 -21 -20
-19 -19 -18 -18 -18 -18 -18 -18 -18 -18 -18 -18 -18 -18 -18 -18 -18 -18 -18 -18 -18 -18 -18 -18 -19 -19 -19 -19 -19 -19 -19 -19 -19 -19 -19 -19 -19 -19 -19 -19 -20 -19 -19
-19 -19 -19 -19 -19 -19 -18 -18 -18 -18 -18 -18 -18 -19 -19 -19 -19 -18 -19 -19 -19 -19 -19 -19 -20 -19 -20 -20 -19 -19 -19 -19 -19 -19 -19 -19 -19 -19 -19 -19 -19 -19 -18
-19 -19 -19 -19 -19 -19 -20 -20 -20 -20 -20 -19 -19 -19 -19 -19 -19 -20 -20 -20 -20 -20 -20 -20 -20 -20 -20 -20 -19 -19 -19 -19 -19 -19 -19 -19 -19 -19 -19 -19 -19 -18 -18
-20 -20 -20 -20 -20 -20 -20 -20 -20 -20 -20 -21 -21 -21 -21 -21 -21 -21 -21 -21 -21 -21 -20 -20 -20 -20 -20 -20 -19 -19 -19 -19 -19 -19 -19 -19 -19 -19 -18 -19 -19 -18 -18
-20 -20 -20 -20 -20 -20 -20 -20 -21 -21 -21 -22 -22 -22 -22 -22 -22 -22 -22 -22 -22 -21 -21 -21 -21 -20 -20 -20 -19 -19 -19 -19 -19 -19 -19 -19 -19 -19 -19 -19 -19 -19 -19
-21 -21 -21 -21 -21 -21 -21 -21 -21 -22 -22 -22 -22 -23 -23 -23 -23 -23 -23 -22 -22 -22 -22 -21 -21 -20 -20 -20 -19 -19 -19 -19 -19 -19 -19 -19 -19 -19 -19 -19 -19 -19 -19
-22 -22 -22 -22 -22 -22 -22 -22 -23 -23 -23 -23 -24 -24 -24 -23 -23 -23 -23 -22 -22 -22 -22 -21 -21 -20 -20 -20 -19 -19 -19 -19 -19 -19 -19 -19 -19 -19 -19 -19 -19 -19 -19
-23 -22 -22 -22 -22 -22 -23 -23 -23 -24 -24 -24 -24 -24 -23 -23 -23 -23 -23 -23 -23 -22 -22 -21 -21 -20 -20 -20 -20 -19 -19 -19 -19 -19 -19 -19 -19 -19 -19 -19 -19 -19 -19
-23 -23 -22 -22 -23 -23 -23 -23 -24 -24 -24 -24 -24 -24 -23 -23 -23 -23 -23 -23 -23 -22 -22 -21 -21 -21 -21 -21 -21 -20 -20 -20 -20 -19 -19 -19 -19 -20 -20 -19 -19 -19 -19

GFSGL_500_temp_297.txt.gz
Temp
-11 -11 -11 -10 -11 -12 -12 -11 -10 -10 -11 -11 -11 -10 -11 -11 -11 -11 -12 -12 -12 -11 -11 -11 -11 -11 -11 -11 -11 -12 -12 -12 -12 -11 -12 -11 -11 -11 -11 -11 -11 -11 -11
-12 -12 -12 -11 -11 -11 -12 -11 -11 -11 -10 -11 -10 -11 -10 -11 -11 -11 -12 -12 -11 -12 -12 -12 -11 -11 -11 -11 -12 -13 -12 -12 -12 -13 -12 -12 -11 -11 -11 -11 -11 -11 -11
-11 -11 -12 -12 -11 -12 -11 -11 -11 -11 -11 -11 -11 -12 -12 -11 -11 -12 -12 -12 -12 -12 -12 -12 -11 -11 -11 -11 -13 -12 -12 -12 -12 -12 -12 -12 -11 -11 -11 -11 -11 -12 -12
-11 -11 -11 -12 -11 -11 -10 -11 -11 -12 -12 -12 -12 -12 -12 -12 -12 -12 -13 -13 -12 -12 -12 -12 -12 -12 -12 -11 -12 -12 -13 -12 -12 -12 -12 -12 -11 -11 -11 -11 -12 -12 -13
-10 -10 -11 -11 -11 -11 -11 -11 -11 -12 -12 -13 -12 -12 -12 -13 -12 -12 -13 -12 -12 -12 -12 -12 -12 -12 -12 -13 -13 -13 -13 -13 -12 -12 -12 -12 -12 -11 -11 -12 -12 -12 -13
-10 -10 -11 -11 -11 -11 -11 -11 -12 -12 -12 -13 -13 -13 -13 -13 -13 -12 -12 -11 -12 -12 -13 -13 -12 -13 -13 -13 -13 -13 -12 -12 -13 -12 -12 -12 -12 -12 -12 -12 -12 -12 -15
-10 -10 -10 -12 -11 -11 -11 -13 -13 -12 -13 -12 -12 -12 -13 -12 -12 -12 -12 -12 -12 -12 -13 -13 -13 -13 -14 -14 -13 -13 -12 -13 -12 -13 -12 -12 -13 -12 -13 -13 -13 -13 -15
-11 -10 -10 -11 -11 -11 -11 -11 -12 -12 -12 -12 -12 -12 -12 -12 -12 -12 -13 -13 -13 -13 -13 -14 -14 -13 -14 -14 -13 -13 -14 -13 -12 -12 -13 -13 -13 -13 -13 -13 -13 -15 -15
-17 -14 -11 -11 -11 -10 -11 -11 -11 -12 -12 -12 -12 -12 -12 -12 -12 -12 -12 -13 -13 -13 -13 -14 -14 -14 -14 -14 -13 -14 -13 -13 -13 -12 -12 -13 -13 -13 -13 -13 -14 -15 -15
-19 -18 -17 -14 -13 -11 -11 -10 -12 -13 -11 -13 -13 -12 -12 -13 -13 -13 -13 -13 -13 -13 -13 -14 -14 -14 -14 -14 -14 -13 -14 -13 -13 -13 -13 -13 -14 -14 -14 -14 -15 -15 -16
-20 -20 -20 -17 -14 -13 -12 -11 -12 -13 -13 -13 -13 -13 -13 -13 -14 -14 -14 -13 -13 -14 -14 -14 -14 -14 -14 -15 -14 -13 -13 -13 -13 -13 -13 -14 -14 -15 -15 -16 -16 -16 -17
-22 -21 -20 -19 -17 -15 -14 -12 -13 -14 -14 -13 -14 -14 -13 -14 -14 -14 -14 -14 -14 -13 -14 -14 -14 -14 -15 -14 -14 -13 -13 -13 -14 -14 -14 -15 -15 -15 -16 -16 -17 -18 -18
-21 -20 -20 -18 -17 -15 -15 -14 -14 -14 -12 -13 -14 -15 -14 -15 -14 -15 -15 -14 -14 -14 -14 -15 -15 -15 -14 -14 -13 -13 -13 -14 -15 -15 -15 -15 -16 -16 -16 -17 -18 -18 -18
-20 -20 -19 -17 -17 -15 -15 -15 -14 -14 -15 -14 -14 -14 -15 -15 -15 -14 -15 -15 -15 -16 -16 -15 -15 -15 -15 -15 -15 -14 -15 -15 -15 -16 -16 -16 -16 -16 -17 -18 -19 -19 -19
-19 -19 -19 -18 -17 -15 -15 -16 -15 -15 -15 -15 -15 -15 -15 -16 -16 -16 -16 -16 -16 -16 -16 -16 -16 -16 -16 -16 -16 -15 -16 -16 -16 -16 -16 -16 -17 -17 -18 -19 -19 -18 -19
-21 -19 -18 -17 -17 -17 -16 -16 -16 -16 -16 -16 -16 -16 -16 -16 -16 -17 -17 -17 -17 -17 -17 -16 -17 -17 -17 -16 -16 -16 -16 -16 -16 -16 -17 -17 -18 -18 -19 -19 -19 -19 -19
-21 -22 -21 -20 -19 -19 -19 -19 -19 -20 -20 -19 -18 -18 -17 -17 -17 -17 -17 -17 -17 -17 -17 -17 -16 -17 -17 -17 -17 -16 -16 -17 -17 -17 -18 -18 -19 -19 -19 -19 -19 -19 -19
-21 -21 -20 -20 -19 -19 -19 -19 -19 -19 -19 -18 -18 -17 -17 -17 -17 -17 -17 -17 -17 -17 -17 -17 -17 -17 -17 -17 -18 -18 -18 -18 -18 -18 -18 -19 -19 -19 -19 -19 -19 -19 -19
-21 -20 -20 -20 -19 -19 -19 -19 -19 -19 -19 -19 -19 -19 -19 -19 -19 -19 -19 -19 -19 -18 -18 -19 -19 -19 -19 -19 -19 -19 -19 -19 -19 -19 -19 -20 -19 -19 -19 -19 -19 -19 -18
-21 -21 -21 -21 -20 -20 -20 -20 -20 -20 -20 -20 -20 -20 -20 -20 -20 -20 -19 -20 -20 -20 -20 -21 -21 -21 -21 -21 -21 -21 -20 -20 -20 -19 -20 -20 -19 -19 -19 -19 -19 -19 -18
-22 -22 -21 -21 -21 -21 -21 -21 -21 -21 -21 -21 -21 -21 -21 -21 -20 -21 -21 -22 -22 -22 -21 -22 -22 -22 -22 -22 -22 -22 -21 -20 -20 -20 -20 -20 -19 -19 -19 -19 -19 -19 -18
-23 -22 -22 -22 -21 -21 -21 -21 -21 -21 -21 -21 -22 -22 -22 -22 -22 -22 -22 -23 -23 -22 -23 -23 -23 -23 -23 -22 -22 -22 -21 -21 -20 -20 -20 -20 -19 -19 -19 -19 -19 -19 -18
-23 -23 -22 -22 -22 -22 -21 -21 -22 -22 -23 -23 -23 -23 -23 -23 -23 -23 -24 -23 -23 -23 -23 -23 -23 -23 -23 -23 -23 -22 -22 -21 -21 -20 -20 -20 -19 -19 -19 -19 -19 -19 -19
-23 -23 -23 -23 -22 -22 -22 -22 -22 -22 -22 -22 -22 -23 -23 -23 -23 -23 -23 -23 -23 -23 -23 -23 -23 -23 -23 -23 -23 -22 -21 -21 -20 -20 -20 -19 -19 -19 -19 -19 -19 -19 -19
-24 -23 -23 -23 -23 -22 -22 -22 -22 -22 -22 -23 -23 -23 -23 -24 -24 -24 -23 -23 -23 -23 -23 -23 -23 -23 -23 -22 -22 -21 -21 -21 -20 -20 -19 -19 -19 -18 -19 -19 -19 -19 -19
-24 -24 -24 -24 -23 -23 -23 -23 -23 -23 -23 -24 -24 -24 -24 -24 -24 -24 -24 -24 -24 -23 -23 -23 -23 -22 -22 -22 -21 -21 -21 -21 -20 -20 -20 -19 -19 -19 -19 -19 -19 -19 -19